Preview of NWS' New Version of Forecast
This preview is not operational and should not be used for support decisions.

Regional Weather Roundup (RWR)

Issued by National Weather Service (NWS)

                            
000
ASUS44 KMEG 192100
RWRTN 
TENNESSEE HOURLY STATE WEATHER ROUNDUP
NATIONAL WEATHER SERVICE MEMPHIS TN
400 PM CDT WED JUN 19 2019

TNZ002-004-019-021-049-052-054-088>092-192200-
WEST TENNESSEE
  
CITY           SKY/WX    TMP DP  RH WIND       PRES   REMARKS
MEMPHIS INTL   FAIR      91  72  53 SW12G22   29.71F HX  98           
NWS MEMPHIS      N/A    N/A N/A N/A MISG        N/A                   
JACKSON        FAIR      89  73  59 SW10      29.71F HX  97           
DYERSBURG      FAIR      88  74  63 SW8       29.68F HX  96           
$$

TNZ008-025-027-028-033-062-065-066-192200-
NORTH MIDDLE TENNESSEE
  
CITY           SKY/WX    TMP DP  RH WIND       PRES   REMARKS
NASHVILLE      PTSUNNY   87  68  52 VRB7      29.72F HX  90           
CLARKSVILLE    FAIR      86  72  62 SW10      29.69F HX  92           
SMYRNA         FAIR      86  72  62 SW9       29.73F HX  92           
CROSSVILLE     FAIR      77  69  76 NW5       29.82F                  
$$

TNZ061-075-076-078-094-096-097-192200-
SOUTH MIDDLE TENNESSEE
  
CITY           SKY/WX    TMP DP  RH WIND       PRES   REMARKS
$$

TNZ017-018-042-046-047-192200-
NORTHEAST TENNESSEE
  
CITY           SKY/WX    TMP DP  RH WIND       PRES   REMARKS
TRI CITIES     PTSUNNY   82  68  62 W10       29.81F                  
$$

TNZ012-013-036-069-073-074-192200-
CENTRAL EAST TENNESSEE
  
CITY           SKY/WX    TMP DP  RH WIND       PRES   REMARKS
KNOXVILLE      PTSUNNY   83  70  64 SW10      29.76F                  
OAK RIDGE      PTSUNNY   85  69  58 VRB5      29.77F                  
$$

TNZ083-085-099-192200-
SOUTHEAST TENNESSEE
  
CITY           SKY/WX    TMP DP  RH WIND       PRES   REMARKS
CHATTANOOGA    PTSUNNY   88  68  51 S8        29.77F HX  91           
$$

SKY/WX REPORTED AS FAIR MEANS FEW OR NO CLOUDS BELOW
12 THOUSAND FEET.